This is the latest recevied weather packets stored in our database for station/object WA3NOA-2. If no packets are shown the sender has not sent any weather packets the latest 10 day(s).
| Time | Temp. | Humidity | Pressure | Rain* | Wind** | Luminosity | Snow |
|---|---|---|---|---|---|---|---|
| 1778179627 | 16.67° C | 43% | 1002.5 hPa | 0 mm | - | - | - |
| 1778179327 | 17.22° C | 39% | 1002.6 hPa | 0 mm | - | - | - |
| 1778179027 | 17.78° C | 41% | 1002.6 hPa | 0 mm | - | - | - |
| 1778178789 | 17.78° C | 48% | 1002.7 hPa | 0 mm | - | - | - |
| 1778178727 | 17.78° C | 45% | 1002.6 hPa | 0 mm | - | - | - |
| 1778178427 | 17.22° C | 46% | 1002.6 hPa | 0.25 mm | - | - | - |
| 1778178127 | 16.67° C | 47% | 1002.5 hPa | 0.25 mm | - | - | - |
| 1778177889 | 16.11° C | 44% | 1002.6 hPa | 0.25 mm | - | - | - |
| 1778177827 | 16.11° C | 42% | 1002.5 hPa | 0.25 mm | - | - | - |
| 1778177527 | 16.11° C | 42% | 1002.6 hPa | 0.25 mm | - | - | - |
| 1778177227 | 16.67° C | 46% | 1002.7 hPa | 0.25 mm | - | - | - |
| 1778176988 | 16.67° C | 48% | 1002.9 hPa | 0.25 mm | - | - | - |
| 1778176927 | 16.11° C | 49% | 1002.9 hPa | 0.25 mm | - | - | - |
| 1778176627 | 16.11° C | 47% | 1002.8 hPa | 0.25 mm | - | - | - |
| 1778176327 | 16.11° C | 50% | 1003 hPa | 0.25 mm | - | - | - |
| 1778176088 | 16.11° C | 47% | 1003.1 hPa | 0.25 mm | - | - | - |
| 1778176027 | 16.11° C | 48% | 1003.1 hPa | 0.25 mm | - | - | - |
| 1778175727 | 16.11° C | 45% | 1003 hPa | 0.25 mm | - | - | - |
| 1778175427 | 16.11° C | 48% | 1003.2 hPa | 0.25 mm | - | - | - |
| 1778175188 | 16.11° C | 51% | 1003.2 hPa | 0.25 mm | - | - | - |
| 1778175127 | 16.11° C | 55% | 1003.3 hPa | 0.25 mm | - | - | - |
| 1778174827 | 16.11° C | 46% | 1003.3 hPa | 0 mm | - | - | - |
| 1778174527 | 16.67° C | 47% | 1003.4 hPa | 0 mm | - | - | - |
| 1778174288 | 16.11° C | 48% | 1003.5 hPa | 0 mm | - | - | - |
| 1778174227 | 16.11° C | 48% | 1003.5 hPa | 0 mm | - | - | - |
* Rain latest hour (hover to see other rain measurements)
** Current wind speed in m/s (hover to see current wind gust speed)